DL8NDG-13 Weather Reports


time (UTC)temp
F
wind
direction
speed
knots
gust
knots
rain 1hr
in
rain 24hr
in
rain mn
in
humidity
%
barometer
mb
20260507051540 50 164 4.3 8.7 0.00 0.30 0.04 83 1009.3
20260507050100 49 167 3.5 7.0 0.00 0.30 0.04 83 1009.0
20260507044546 49 164 3.5 6.1 0.00 0.30 0.04 83 1008.9
20260507043031 49 360 0.9 5.2 0.00 0.30 0.04 83 1008.8
20260507041529 49 115 0.0 0.0 0.00 0.30 0.04 83 1008.6
20260507040028 49 115 0.0 0.0 0.00 0.30 0.04 83 1008.5
20260507034534 49 187 0.0 0.0 0.00 0.30 0.04 83 1008.5
20260507033031 49 186 0.0 0.0 0.00 0.30 0.04 83 1008.5
20260507031531 49 134 0.0 0.0 0.00 0.30 0.04 83 1008.5
20260507030026 50 121 0.0 0.0 0.00 0.30 0.04 83 1008.4
20260507024522 50 115 0.0 0.0 0.00 0.30 0.04 82 1008.3
20260507023021 50 116 0.0 0.0 0.00 0.30 0.04 82 1008.4
20260507021533 50 192 1.7 7.8 0.00 0.30 0.04 82 1008.3
20260507020022 50 201 2.6 5.2 0.00 0.30 0.04 82 1008.0
20260507014520 50 180 2.6 5.2 0.00 0.30 0.04 82 1008.0
20260507013013 50 360 2.6 7.0 0.01 0.30 0.04 82 1007.8
20260507011517 50 360 1.7 6.1 0.02 0.30 0.04 82 1007.8
20260507010027 50 173 3.5 9.6 0.02 0.30 0.04 82 1007.9
20260507004509 51 227 2.6 9.6 0.02 0.30 0.04 82 1007.8
20260507003006 52 173 7.0 10.4 0.01 0.28 0.03 81 1007.8
20260507001504 52 159 1.7 7.0 0.00 0.28 0.02 81 1007.8
20260507000004 52 191 3.5 7.0 0.01 0.28 0.02 81 1007.8
20260506234502 52 170 1.7 6.1 0.01 0.28 0.02 81 1007.8
20260506233002 52 169 2.6 6.1 0.01 0.28 0.02 81 1007.7
20260506231601 52 360 2.6 4.3 0.02 0.28 0.02 82 1007.7
20260506230100 52 170 3.5 6.1 0.01 0.27 0.01 82 1007.8
20260506224557 52 172 3.5 6.1 0.01 0.27 0.01 83 1007.5
20260506223100 52 173 2.6 9.6 0.01 0.27 0.01 83 1007.2
20260506221555 52 171 4.3 8.7 0.00 0.26 0.00 83 1007.2
20260506220049 52 175 3.5 7.8 0.00 0.26 0.00 83 1007.1
20260506214548 52 360 5.2 8.7 0.01 0.26 0.26 84 1007.2
20260506213047 53 200 3.5 8.7 0.01 0.26 0.26 84 1007.2
20260506211546 53 178 7.8 10.4 0.02 0.26 0.26 84 1006.9
20260506210046 53 159 5.2 10.4 0.02 0.26 0.26 84 1007.1
20260506204554 54 173 4.3 6.1 0.01 0.25 0.25 83 1006.7
20260506203042 54 171 3.5 5.2 0.00 0.24 0.24 84 1006.8
20260506201541 54 213 3.5 7.0 0.00 0.24 0.24 84 1006.4
20260506200044 54 205 0.9 4.3 0.00 0.24 0.24 84 1006.3
20260506194548 55 190 0.0 4.3 0.01 0.24 0.24 84 1006.2
20260506193037 55 191 0.0 5.2 0.04 0.24 0.24 84 1006.2
20260506191537 55 174 3.5 7.8 0.07 0.24 0.24 84 1006.0
20260506190039 55 122 0.0 0.0 0.11 0.24 0.24 85 1005.6
20260506184536 55 183 0.0 3.5 0.10 0.23 0.23 85 1005.3
20260506183038 56 160 0.9 6.1 0.07 0.20 0.20 85 1005.3
20260506181536 56 159 4.3 9.6 0.03 0.16 0.16 85 1005.3
20260506180033 56 194 1.7 4.3 0.00 0.13 0.13 86 1005.1
20260506174533 56 232 0.9 2.6 0.01 0.13 0.13 86 1004.6
20260506173032 56 44 0.0 2.6 0.02 0.13 0.13 86 1004.4
20260506171540 56 55 0.0 0.0 0.03 0.13 0.13 86 1003.9
20260506170035 57 55 0.0 0.0 0.13 0.13 0.13 86 1004.0
20260506164535 57 53 0.0 0.0 0.12 0.19 0.12 85 1004.2
20260506163129 58 52 0.0 0.9 0.11 0.18 0.11 85 1004.3
20260506161537 59 122 0.0 0.0 0.09 0.16 0.09 81 1004.3
20260506160040 61 121 0.0 0.0 0.00 0.07 0.00 76 1004.0
20260506154531 62 148 0.0 0.0 0.00 0.09 0.00 72 1003.9
20260506153025 62 169 0.0 0.0 0.00 0.09 0.00 71 1004.0
20260506151533 63 161 0.0 0.0 0.00 0.09 0.00 69 1004.0
20260506150030 65 148 1.7 7.8 0.00 0.09 0.00 64 1004.0
20260506144525 66 229 0.0 0.9 0.00 0.09 0.00 59 1003.7
20260506143037 66 213 1.7 7.8 0.00 0.09 0.00 58 1003.6
20260506141520 67 222 0.0 0.0 0.00 0.09 0.00 58 1003.6
20260506140020 66 242 0.0 5.2 0.00 0.09 0.00 58 1003.6
20260506134518 66 259 0.9 3.5 0.00 0.09 0.00 58 1003.6
20260506133020 67 222 0.9 6.1 0.00 0.09 0.00 59 1003.8
20260506131516 66 166 0.0 0.9 0.00 0.09 0.00 59 1003.9
20260506130014 66 207 2.6 5.2 0.00 0.09 0.00 60 1004.2
20260506124512 67 144 0.0 0.0 0.00 0.09 0.00 58 1004.2
20260506123010 67 165 0.0 0.0 0.00 0.09 0.00 57 1004.5
20260506121507 67 149 0.0 0.0 0.00 0.09 0.00 62 1004.4
20260506120006 66 166 0.0 0.0 0.00 0.09 0.00 60 1004.6
20260506114505 66 133 0.0 0.0 0.00 0.09 0.00 62 1004.6
20260506113007 67 146 0.0 0.0 0.00 0.09 0.00 60 1004.7
20260506111502 66 159 0.0 0.0 0.00 0.09 0.00 65 1004.8
20260506110104 66 176 0.0 0.0 0.00 0.09 0.00 65 1005.0
20260506104615 65 189 0.0 0.0 0.00 0.09 0.00 64 1005.0
20260506103053 64 192 0.0 5.2 0.00 0.09 0.00 69 1005.1
20260506101556 63 360 0.9 4.3 0.00 0.09 0.00 70 1005.2
20260506100047 63 360 0.0 0.0 0.00 0.09 0.00 71 1005.1
20260506094554 62 360 0.0 0.0 0.00 0.09 0.00 71 1005.2
20260506093046 61 360 0.0 0.0 0.00 0.09 0.00 76 1005.2
20260506091542 60 360 0.0 0.0 0.00 0.09 0.00 76 1005.3
20260506090038 60 360 0.0 0.0 0.00 0.09 0.00 78 1005.3
20260506084535 60 202 0.0 0.0 0.00 0.09 0.00 80 1005.2
20260506083034 59 203 0.0 0.0 0.00 0.09 0.00 79 1005.5
20260506081532 59 234 0.0 0.0 0.00 0.09 0.00 80 1005.4
20260506073023 57 165 0.0 0.0 0.00 0.09 0.00 86 1005.1
20260506071520 56 166 0.0 0.0 0.00 0.09 0.00 85 1005.0
20260506061552 53 236 0.0 0.0 0.00 0.09 0.00 80 1005.1